This is the latest recevied weather packets stored in our database for station/object N0EDB-13. If no packets are shown the sender has not sent any weather packets the latest 10 day(s).
| Time | Temp. | Humidity | Pressure | Rain* | Wind** | Luminosity | Snow |
|---|---|---|---|---|---|---|---|
| 1777505377 | 13.89° C | 37% | 1493.1 hPa | 0 mm | - | 85 W/m² | - |
| 1777505076 | 13.89° C | 36% | 1492.9 hPa | 0 mm | - | 107 W/m² | - |
| 1777504776 | 13.89° C | 36% | 1493.2 hPa | 0 mm | - | 124 W/m² | - |
| 1777504475 | 13.89° C | 36% | 1493 hPa | 0 mm | - | 117 W/m² | - |
| 1777504174 | 13.89° C | 36% | 1492.9 hPa | 0 mm | - | 104 W/m² | - |
| 1777503874 | 14.44° C | 37% | 1492.4 hPa | 0 mm | - | 100 W/m² | - |
| 1777503573 | 14.44° C | 38% | 1491.5 hPa | 0 mm | - | 105 W/m² | - |
| 1777503273 | 14.44° C | 38% | 1490.7 hPa | 0 mm | - | 241 W/m² | - |
| 1777502972 | 14.44° C | 37% | 1491 hPa | 0 mm | - | 426 W/m² | - |
| 1777502672 | 14.44° C | 35% | 1491.5 hPa | 0 mm | - | 336 W/m² | - |
| 1777502372 | 14.44° C | 39% | 1492 hPa | 0 mm | - | 231 W/m² | - |
| 1777502072 | 14.44° C | 37% | 1492 hPa | 0 mm | - | 198 W/m² | - |
| 1777501771 | 14.44° C | 39% | 1492 hPa | 0 mm | - | 173 W/m² | - |
| 1777501471 | 14.44° C | 35% | 1491.1 hPa | 0 mm | - | 166 W/m² | - |
| 1777501170 | 14.44° C | 36% | 1491.1 hPa | 0 mm | - | 115 W/m² | - |
| 1777500870 | 14.44° C | 36% | 1490.5 hPa | 0 mm | - | 90 W/m² | - |
| 1777500569 | 15° C | 35% | 1489.8 hPa | 0 mm | - | 80 W/m² | - |
| 1777500268 | 15.56° C | 35% | 1488.7 hPa | 0 mm | - | 85 W/m² | - |
| 1777499968 | 15.56° C | 35% | 1487.7 hPa | 0 mm | - | 116 W/m² | - |
| 1777499667 | 16.67° C | 34% | 1485.5 hPa | 0 mm | - | 120 W/m² | - |
| 1777499366 | 16.67° C | 34% | 1485.8 hPa | 0 mm | - | 137 W/m² | - |
| 1777499065 | 16.67° C | 34% | 1485.1 hPa | 0 mm | - | 192 W/m² | - |
| 1777498765 | 17.22° C | 34% | 1484.1 hPa | 0 mm | - | 623 W/m² | - |
| 1777498464 | 17.22° C | 33% | 1483.7 hPa | 0 mm | - | 664 W/m² | - |
| 1777498164 | 17.22° C | 34% | 1483.9 hPa | 0 mm | - | 878 W/m² | - |
* Rain latest hour (hover to see other rain measurements)
** Current wind speed in m/s (hover to see current wind gust speed)